SM0IFP-13 Drevviken Tyreso SE current weather conditions

sailwx.info

Wind from 311 at 9 knots gusting 16

Air temperature 5.0° C
Dewpoint -4.6° C

Last reported at 2020-Jan-22 12:52 UTC.
Time now 2020-Jan-22 13:26 UTC

Location: N 59°13' E 018°11'.
View on Google Maps.

See reports from other nearby stations

  
Tides and Currents Weather Stations Pressure Air Temp Water Temp Dewpoint Dewpoint Depression Visibility Wind Speed Wind Dir Waves Ship Positions
date/time (UTC)wind fromknots sea level pressurealtimeterstation pressurevisibilityair tempwater tempwave heightnotes
2020-Jan-22 13:01 308 6 gusting 16 5.0
2020-Jan-22 12:52 311 9 gusting 16 5.0
2020-Jan-22 12:43 286 8 gusting 14 5.0
2020-Jan-22 12:34 290 11 gusting 13 5.0
2020-Jan-22 12:25 296 8 gusting 19 5.0
2020-Jan-22 12:16 300 12 gusting 19 5.0
2020-Jan-22 12:07 291 6 gusting 19 5.0
2020-Jan-22 11:58 299 6 gusting 20 5.0
2020-Jan-22 11:49 304 9 gusting 18 5.0
2020-Jan-22 11:40 306 6 gusting 15 4.4
2020-Jan-22 11:31 308 6 gusting 16 4.4
2020-Jan-22 11:22 296 11 gusting 14 4.4
2020-Jan-22 11:13 285 9 gusting 13 4.4
2020-Jan-22 11:04 292 7 gusting 17 3.9
2020-Jan-22 10:55 297 9 gusting 26 3.9
2020-Jan-22 10:46 302 9 gusting 19 3.9
2020-Jan-22 10:37 305 11 gusting 18 3.9
2020-Jan-22 10:28 301 10 gusting 16 3.9
2020-Jan-22 10:19 307 10 gusting 16 3.9
2020-Jan-22 10:10 298 9 gusting 15 3.9
2020-Jan-22 10:01 297 8 gusting 21 4.4
2020-Jan-22 09:52 291 13 gusting 21 3.9
2020-Jan-22 09:43 296 9 gusting 17 3.9
2020-Jan-22 09:34 311 8 gusting 18 4.4
2020-Jan-22 09:25 309 6 gusting 18 4.4
2020-Jan-22 09:16 319 6 gusting 17 4.4
2020-Jan-22 09:07 349 10 gusting 17 3.9
2020-Jan-22 08:58 311 6 gusting 18 3.9
2020-Jan-22 08:49 289 7 gusting 21 3.3
2020-Jan-22 08:40 295 6 gusting 19 3.9
2020-Jan-22 08:31 302 13 gusting 16 3.9
2020-Jan-22 08:22 280 7 gusting 14 3.3
2020-Jan-22 08:13 326 6 gusting 17 3.3
2020-Jan-22 08:04 308 9 gusting 25 3.3
2020-Jan-22 05:00 298 13 gusting 17 4.4
2020-Jan-22 04:51 298 8 gusting 20 4.4
2020-Jan-22 04:42 292 7 gusting 18 4.4
2020-Jan-22 04:33 296 9 gusting 16 4.4
2020-Jan-22 04:24 304 10 gusting 18 4.4
2020-Jan-22 04:15 293 12 gusting 17 4.4
2020-Jan-22 04:06 269 9 gusting 17 4.4
2020-Jan-22 03:57 287 9 gusting 21 4.4
2020-Jan-22 03:48 269 11 gusting 25 4.4
2020-Jan-22 03:39 279 8 gusting 15 4.4
2020-Jan-22 03:30 279 8 gusting 18 5.0
2020-Jan-22 03:21 275 9 gusting 19 5.0
2020-Jan-22 03:12 248 9 gusting 17 5.0
2020-Jan-22 03:03 268 10 gusting 14 5.0
2020-Jan-22 02:54 304 7 gusting 20 5.6
2020-Jan-22 02:45 312 7 gusting 23 5.6
2020-Jan-22 02:36 311 7 gusting 20 5.6
2020-Jan-22 02:27 300 11 gusting 17 5.6
2020-Jan-22 02:18 300 13 gusting 23 5.6
2020-Jan-22 02:09 307 7 gusting 19 5.6
2020-Jan-22 02:00 317 11 gusting 23 5.6
2020-Jan-22 01:51 303 17 gusting 21 5.6
2020-Jan-22 01:42 301 10 gusting 19 5.6
2020-Jan-22 01:33 285 12 gusting 18 5.6
2020-Jan-22 01:24 290 8 gusting 20 5.6
2020-Jan-22 01:15 289 10 gusting 19 5.6
2020-Jan-22 01:06 306 5 gusting 18 5.6
2020-Jan-22 00:57 292 6 gusting 18 5.6
2020-Jan-22 00:48 296 7 gusting 17 5.6
2020-Jan-22 00:39 290 6 gusting 19 5.6
2020-Jan-22 00:30 280 6 gusting 19 5.6
2020-Jan-22 00:21 289 11 gusting 17 5.6
2020-Jan-22 00:12 278 8 gusting 13 5.6
2020-Jan-22 00:03 315 7 gusting 14 5.6
2020-Jan-21 23:54 263 6 gusting 15 5.6
2020-Jan-21 23:45 242 10 gusting 19 5.6
2020-Jan-21 23:36 242 9 gusting 13 5.6
2020-Jan-21 23:27 237 6 gusting 14 5.6
2020-Jan-21 23:18 244 6 gusting 13 5.6
2020-Jan-21 23:09 241 5 gusting 10 6.1
2020-Jan-21 22:51 247 7 gusting 13 6.1
2020-Jan-21 22:42 234 8 gusting 13 6.1
2020-Jan-21 22:33 259 7 gusting 11 6.1
2020-Jan-21 22:24 238 6 gusting 10 6.1
2020-Jan-21 22:15 248 5 gusting 13 6.1
2020-Jan-21 22:06 259 6 gusting 14 6.1
2020-Jan-21 21:57 234 5 gusting 12 6.1
2020-Jan-21 21:48 251 5 gusting 10 6.1
2020-Jan-21 21:39 272 4 gusting 13 6.1
2020-Jan-21 21:30 285 5 gusting 12 6.1
2020-Jan-21 21:21 248 6 gusting 12 6.7
2020-Jan-21 21:12 259 6 gusting 12 6.7
2020-Jan-21 21:03 225 7 gusting 13 6.1
2020-Jan-21 20:54 230 6 gusting 18 6.7
2020-Jan-21 20:45 261 7 gusting 13 6.7
2020-Jan-21 20:36 241 6 gusting 15 6.7
2020-Jan-21 20:27 239 6 gusting 13 6.7
2020-Jan-21 20:18 244 6 gusting 11 6.7
2020-Jan-21 20:09 248 7 gusting 13 6.7
2020-Jan-21 20:00 235 8 gusting 18 6.7
2020-Jan-21 19:51 236 10 gusting 14 6.7
2020-Jan-21 19:42 218 8 gusting 15 6.7
2020-Jan-21 19:33 246 8 gusting 14 6.7
2020-Jan-21 19:24 233 10 gusting 14 6.7
2020-Jan-21 19:15 277 10 gusting 14 6.7
2020-Jan-21 19:06 319 6 gusting 13 6.1
2020-Jan-21 18:57 235 6 gusting 13 6.1
2020-Jan-21 18:48 248 4 gusting 7 6.1
2020-Jan-21 18:39 245 4 gusting 6 6.1
2020-Jan-21 18:30 240 3 gusting 6 6.1
2020-Jan-21 18:21 229 2 gusting 5 6.1
2020-Jan-21 18:12 227 3 gusting 6 6.1
2020-Jan-21 18:03 241 3 gusting 6 6.1
2020-Jan-21 17:54 229 2 gusting 6 6.1
2020-Jan-21 17:45 236 3 gusting 9 6.1
2020-Jan-21 17:36 265 5 gusting 9 6.1
2020-Jan-21 17:27 237 6 gusting 9 6.1
2020-Jan-21 17:18 229 5 gusting 8 6.1
2020-Jan-21 17:09 325 5 gusting 7 6.1
2020-Jan-21 17:00 236 4 gusting 11 6.7
2020-Jan-21 16:51 238 4 gusting 8 6.7
2020-Jan-21 16:42 228 5 gusting 8 6.7
2020-Jan-21 16:33 260 3 gusting 9 6.7
2020-Jan-21 16:24 251 6 gusting 9 6.7
2020-Jan-21 16:15 238 4 gusting 8 6.7
2020-Jan-21 16:06 293 3 gusting 7 7.2
2020-Jan-21 15:57 301 6 gusting 15 7.2
2020-Jan-21 15:48 288 5 gusting 13 7.2
2020-Jan-21 15:39 257 10 gusting 13 7.2
2020-Jan-21 15:30 269 5 gusting 9 7.2
2020-Jan-21 15:21 274 3 gusting 11 7.2
2020-Jan-21 15:12 235 4 gusting 9 7.2
2020-Jan-21 15:03 244 5 gusting 12 7.2
2020-Jan-21 14:39 264 3 gusting 6 7.2
2020-Jan-21 13:19 227 6 gusting 10 7.8
2020-Jan-21 13:10 225 6 gusting 9 7.8
2020-Jan-21 13:01 246 4 gusting 9 7.8
2020-Jan-21 12:52 255 6 gusting 9 7.8
2020-Jan-21 12:43 250 4 gusting 9 7.8
2020-Jan-21 12:34 228 6 gusting 13 7.8
2020-Jan-21 12:25 250 6 gusting 9 8.3
2020-Jan-21 12:16 268 3 gusting 11 8.3
2020-Jan-21 12:07 236 6 gusting 11 8.9
2020-Jan-21 11:58 270 4 gusting 9 9.4
2020-Jan-21 11:49 250 6 gusting 13 8.9
2020-Jan-21 11:40 283 8 gusting 11 9.4
2020-Jan-21 11:31 274 3 gusting 13 8.9
2020-Jan-21 11:22 290 4 gusting 13 8.9
2020-Jan-21 11:13 298 5 gusting 13 8.3
2020-Jan-21 11:04 299 7 gusting 12 8.3
2020-Jan-21 10:55 258 4 gusting 9 8.9
2020-Jan-21 10:46 259 4 gusting 13 8.3
2020-Jan-21 10:37 264 4 gusting 9 9.4
2020-Jan-21 10:28 287 3 gusting 9 8.9
2020-Jan-21 10:19 279 3 gusting 6 8.9
2020-Jan-21 10:10 299 3 gusting 8 7.8
2020-Jan-21 10:01 294 3 gusting 12 7.8
2020-Jan-21 09:52 312 8 gusting 14 7.8
2020-Jan-21 09:43 305 6 gusting 18 7.8
2020-Jan-21 09:34 287 14 gusting 18 7.8
2020-Jan-21 09:25 273 6 gusting 16 7.8
2020-Jan-21 07:40 267 6 gusting 16 7.8
2020-Jan-21 07:31 263 12 gusting 15 7.8
2020-Jan-21 07:22 286 6 gusting 16 7.8
2020-Jan-21 07:13 258 11 gusting 14 7.8
2020-Jan-21 06:53 270 11 gusting 21 7.8
2020-Jan-21 06:44 242 10 gusting 19 7.8
2020-Jan-21 06:35 272 11 gusting 18 7.8
2020-Jan-21 06:26 237 9 gusting 21 7.8
2020-Jan-21 06:17 278 14 gusting 26 7.8
2020-Jan-21 06:08 251 13 gusting 23 7.8
2020-Jan-21 05:59 260 12 gusting 20 8.3
2020-Jan-21 05:50 253 9 gusting 22 7.8
2020-Jan-21 05:41 236 10 gusting 23 8.3
2020-Jan-21 05:32 251 12 gusting 19 8.3
2020-Jan-21 05:23 256 13 gusting 20 8.3
2020-Jan-21 05:14 302 9 gusting 20 8.3
2020-Jan-21 05:05 353 11 gusting 16 8.3
2020-Jan-21 04:56 250 9 gusting 16 8.3
2020-Jan-21 04:47 266 9 gusting 16 8.3
2020-Jan-21 04:38 270 6 gusting 19 8.3
2020-Jan-21 04:29 238 11 gusting 19 8.3
2020-Jan-21 04:20 218 13 gusting 19 8.3
2020-Jan-21 04:11 231 13 gusting 18 8.3
2020-Jan-21 03:51 229 13 gusting 26 8.3
2020-Jan-21 03:42 240 10 gusting 22 8.3
2020-Jan-21 03:33 223 14 gusting 24 8.3
2020-Jan-21 03:24 251 12 gusting 20 8.3
2020-Jan-21 03:15 252 17 gusting 26 8.3
2020-Jan-21 03:06 255 9 gusting 18 8.3
2020-Jan-21 02:57 228 12 gusting 23 8.3
2020-Jan-21 02:48 236 12 gusting 20 8.3
2020-Jan-21 02:39 233 13 gusting 19 8.3
2020-Jan-21 02:30 290 11 gusting 19 8.3
2020-Jan-21 02:21 218 9 gusting 19 8.3
2020-Jan-21 02:12 240 14 gusting 22 8.3
2020-Jan-21 02:03 246 8 gusting 23 8.3
2020-Jan-21 01:54 232 9 gusting 18 8.3
2020-Jan-21 01:45 219 6 gusting 15 8.3
2020-Jan-21 01:36 252 8 gusting 15 8.3
2020-Jan-21 01:27 221 8 gusting 14 8.3
2020-Jan-21 01:18 232 9 gusting 14 8.3
2020-Jan-21 01:09 332 9 gusting 14 7.8
2020-Jan-21 01:00 289 7 gusting 17 7.8
2020-Jan-21 00:51 216 9 gusting 15 7.8
2020-Jan-21 00:42 218 9 gusting 13 7.8
2020-Jan-21 00:33 224 9 gusting 14 7.8
2020-Jan-21 00:24 232 6 gusting 14 7.8
2020-Jan-21 00:15 246 7 gusting 18 7.8
2020-Jan-21 00:06 228 12 gusting 19 7.8
2020-Jan-20 23:57 240 9 gusting 14 7.8
2020-Jan-20 23:48 229 10 gusting 19 7.2
2020-Jan-20 23:39 225 13 gusting 22 7.8
2020-Jan-20 23:30 241 9 gusting 19 7.2
2020-Jan-20 23:21 221 14 gusting 19 7.8
2020-Jan-20 23:12 257 9 gusting 26 7.8
2020-Jan-20 23:03 223 12 gusting 18 7.2
2020-Jan-20 22:54 222 9 gusting 18 7.2
2020-Jan-20 22:45 221 11 gusting 16 7.2
2020-Jan-20 22:36 236 8 gusting 17 7.2
2020-Jan-20 22:27 241 13 gusting 18 7.2
2020-Jan-20 22:18 249 8 gusting 18 7.2
2020-Jan-20 22:09 217 12 gusting 18 6.7
2020-Jan-20 22:00 221 12 gusting 18 7.2
2020-Jan-20 21:51 247 11 gusting 17 7.2
2020-Jan-20 21:42 234 11 gusting 18 6.7
2020-Jan-20 21:33 231 11 gusting 18 7.2
2020-Jan-20 21:24 221 13 gusting 19 7.2
2020-Jan-20 21:15 234 9 gusting 19 6.7
2020-Jan-20 21:06 232 9 gusting 18 6.7
2020-Jan-20 20:57 284 11 gusting 19 6.7
2020-Jan-20 20:48 237 11 gusting 18 7.2
2020-Jan-20 20:39 232 12 gusting 19 7.2
2020-Jan-20 20:30 225 11 gusting 19 7.2
2020-Jan-20 20:21 227 11 gusting 21 7.2
2020-Jan-20 20:12 219 16 gusting 21 7.2
2020-Jan-20 20:03 270 12 gusting 19 7.2
2020-Jan-20 19:54 241 11 gusting 21 7.2
2020-Jan-20 19:45 235 13 gusting 21 7.2
2020-Jan-20 19:36 240 13 gusting 23 7.2
2020-Jan-20 19:27 257 8 gusting 18 7.2
2020-Jan-20 19:18 248 13 gusting 18 7.2
2020-Jan-20 19:09 256 6 gusting 19 7.2
2020-Jan-20 19:00 248 11 gusting 23 6.7
2020-Jan-20 18:51 249 13 gusting 17 6.7
2020-Jan-20 18:42 229 10 gusting 19 6.7
2020-Jan-20 18:33 230 8 gusting 18 6.7
2020-Jan-20 18:24 222 12 gusting 21 6.7
2020-Jan-20 18:15 238 10 gusting 20 6.7
2020-Jan-20 18:06 246 13 gusting 19 6.7
2020-Jan-20 17:57 268 12 gusting 20 6.1
2020-Jan-20 17:48 235 11 gusting 16 6.1
2020-Jan-20 17:39 238 13 gusting 20 6.1
2020-Jan-20 17:30 237 10 gusting 18 6.1
2020-Jan-20 17:21 238 9 gusting 18 6.1
2020-Jan-20 17:12 244 8 gusting 19 6.1
2020-Jan-20 17:03 262 9 gusting 18 6.1
2020-Jan-20 16:54 188 9 gusting 14 6.1
2020-Jan-20 16:45 279 7 gusting 13 6.1
2020-Jan-20 16:36 222 6 gusting 13 6.1
2020-Jan-20 16:27 230 7 gusting 18 6.1
2020-Jan-20 16:18 235 11 gusting 16 5.6
2020-Jan-20 16:09 241 6 gusting 16 6.1
2020-Jan-20 16:00 201 6 gusting 15 5.6
2020-Jan-20 15:51 227 9 gusting 14 5.6
2020-Jan-20 15:42 242 6 gusting 13 6.1
2020-Jan-20 15:33 248 6 gusting 13 5.6
2020-Jan-20 15:24 210 8 gusting 13 5.6
2020-Jan-20 15:15 289 7 gusting 13 5.6
2020-Jan-20 15:06 343 9 gusting 14 5.6
2020-Jan-20 14:57 260 7 gusting 13 5.6
2020-Jan-20 14:48 230 8 gusting 13 5.6
2020-Jan-20 14:39 228 6 gusting 12 5.6
2020-Jan-20 14:30 221 5 gusting 12 5.6
2020-Jan-20 14:21 208 5 gusting 14 5.6
2020-Jan-20 14:12 219 10 gusting 14 5.6
2020-Jan-20 14:03 216 6 gusting 17 5.6
2020-Jan-20 13:54 213 8 gusting 16 5.6
2020-Jan-20 13:45 228 6 gusting 14 5.6
2020-Jan-20 13:36 218 7 gusting 18 6.1
2020-Jan-20 13:27 224 10 gusting 18 6.1
2020-Jan-20 13:18 219 9 gusting 13 6.1
2020-Jan-20 13:09 247 7 gusting 13 6.1
2020-Jan-20 13:00 215 7 gusting 16 5.6